Showing default

CFOSAT, 43662

Orbit data source: Space-Track

CFOSAT, 43662 is a Chinese payload satellite in SSO that was launched on Mon, 29 Oct 2018 UTC via a CHANG ZHENG 2C launch vehicle from the Jiuquan Satellite Launch Center, China (JSC). Payload-class satellites include a variety of spacecraft equipped with specific instruments for various scientific and technological missions. These include communications satellites like Starlink; space stations such as the ISS; scientific satellites like the Hubble; Earth observation satellites from companies like Planet Labs, Umbra, and HawkEye 360; GPS; miniature CubeSats for education and research; and military/defense satellites.

Loading next visibility...
Identifier
43662, 2018-083A
Orbit
SSO
Last TLE update
7 hours ago
Origin
Manufacturer
DFH
Mission
Operational Civil Science
Bus & Motor
CAST-2000, Unknown motor
Mass
700 kg wet, 700 kg dry
Launch date (UTC)
2018-10-29 (7 years ago)
Launch vehicle
CHANG ZHENG 2C
Launch site
Jiuquan Satellite Launch Center, China (JSC)
Object type
Payload
Rocket body
Debris
Shape & HBR
Box + 2 Pan, 10 m
Radar Cross Section
5.252 m², Large (>1 m²)

Expand to show TLE details & history

TLE from 7 hours ago
0 CFOSAT
1 43662U 18083A   25128.98852066  .00005162  00000-0  26808-3 0  9994
2 43662  97.3637 140.3679 0001976  96.3855 263.7603 15.16527709361186
Epoch: 2025-05-08T23:43Z
Definitive object data (Epoch: 2025-05-08T23:43:28.185Z)
Latitude
-0.00004°
Longitude
-82.55065°
Altitude
519.58 km
Speed
7.604 km/s
True Right ascension
09h 21m 28s
True Declination
0° 00' 00"
Sunlit
Object was in daylight at TLE epoch
Visualization TLE readout
Latitude
74.36779°
Longitude
125.06737°
Altitude
527.739 km
Speed
7.607 km/s
Apparent Right ascension
01h 45m 07s
Apparent Declination
22° 20' 08"
Sunlit
Object is in daylight
Visualization observer readout
Local Sidereal Time
14:39:45
Azimuth
14.119° NNE
Elevation
-26.457°
Doppler factor
1
Orbital elements
Apogee altitude
514.675 km
Perigee altitude
511.951 km
Semi-major axis
6,891.45 km
Eccentricity
0.0001976
Inclination
97.3637°
RAAN
140.3679°
Arg. of periapsis
96.3855°
True anomaly
263.73779°
Mean anomaly
263.7603°
Eccentric anomaly
263.74905°
Mean motion
3.79382 °/min
BSTAR
0.00026808
Orbital period
94.89 mins
Loading maneuver chart data...
Loading SW <> Apogee altitude chart data...
Loading historical data...
Loading historical data...
Loading historical data...
Loading historical data...
Loading historical data...
Loading historical data...
Loading historical data...

CFOSAT Visibility forecast

Observer location: undefined°, undefined°

Span
Click to sort rows by Start time (UTC) header in descending order
Start Az.
Max El. time (UTC)
Max El. Az.
Max El.
End time (UTC)
End Az.
6 mins2025-05-09 12:57:54.624Z39.566° NE2025-05-09 13:00:54.624Z102.217° ESE25.151°2025-05-09 13:03:54.624Z156.761° SSE
5 mins2025-05-10 01:11:54.624Z201.171° SSW2025-05-10 01:13:54.624Z254.317° W32.904°2025-05-10 01:16:54.624Z328.446° NNW
|